Faith, SD

9:38 PM MST on February 11, 2016 (GMT -0700)
Faith

Weather History for KD07 - October, 2013

Change the Weather History Date:

Thursday, October 17, 2013

  Actual Average Record
Temperature  
Mean Temperature 37 °F 46 °F  
Max Temperature 42 °F 58 °F 80 °F (2003)
Min Temperature 32 °F 35 °F 21 °F (1999)
Degree Days  
Heating Degree Days 28 19  
Month to date heating degree days 329 266  
Since 1 July heating degree days 424 498  
Cooling Degree Days 0 0  
Month to date cooling degree days 0 0  
Year to date cooling degree days 720 634  
Moisture  
Dew Point 30 °F    
Average Humidity 76    
Maximum Humidity 100    
Minimum Humidity 51    
Precipitation  
Precipitation 0.09 in 0.06 in 0.87 in (1998)
Month to date precipitation 2.30 0.67  
Year to date precipitation 15.77 15.85  
Sea Level Pressure  
Sea Level Pressure 30.11 in    
Wind  
Wind Speed 14 mph (NW)    
Max Wind Speed 26 mph    
Max Gust Speed 31 mph    
T = Trace of Precipitation, MM = Missing Value Source: NWS Daily Summary

Daily Weather History Graph

Daily Weather History Graph

Search for Another Location

Airport or City:

Trip Planner

Search our weather history database for the weather conditions in past years. The results will help you decide how hot, cold, wet, or windy it might be!

Date:

Astronomy

Oct. 17, 2013 Rise Set
Actual Time 7:06 AM MDT 5:59 PM MDT
Civil Twilight 6:37 AM MDT 6:28 PM MDT
Nautical Twilight 6:02 AM MDT 7:02 PM MDT
Astronomical Twilight 5:28 AM MDT 7:36 PM MDT
Moon 5:15 PM MDT (10/17) 5:38 AM MDT (10/17)
Length of Visible Light 11h 51m
Length of Day
10h 52m
Waxing Gibbous, 98% of the Moon is Illuminated
Oct 17
Waxing Gibbous
Oct 18
Full
Oct 26
Last Quarter
Nov 3
New
Nov 9
First Quarter

Hourly Weather History & Observations

Time (MDT) Temp. Windchill Dew Point Humidity Pressure Visibility Wind Dir Wind Speed Gust Speed Precip Events Conditions
12:56 AM 37.0 °F 29.3 °F 33.1 °F 86% 29.98 in - NW 11.5 mph - N/A   Unknown
1:56 AM 37.9 °F 29.2 °F 35.1 °F 89% 29.99 in - NNW 15.0 mph - N/A   Unknown
2:56 AM 39.0 °F 28.5 °F 37.0 °F 93% 30.01 in - NNW 23.0 mph 29.9 mph N/A   Unknown
3:56 AM 36.0 °F 26.3 °F 35.1 °F 97% 30.04 in - NW 16.1 mph 26.5 mph 0.01 in   Unknown
4:56 AM 35.1 °F 24.1 °F 34.0 °F 96% 30.05 in - NW 19.6 mph - 0.03 in   Unknown
5:56 AM 35.1 °F 23.8 °F 34.0 °F 96% 30.08 in - NNW 20.7 mph 29.9 mph 0.04 in   Unknown
6:56 AM 35.1 °F 23.8 °F 33.1 °F 92% 30.10 in - NW 20.7 mph 25.3 mph 0.01 in   Unknown
7:56 AM 34.0 °F 23.0 °F 33.1 °F 96% 30.13 in - NW 18.4 mph 24.2 mph N/A   Unknown
8:56 AM 35.1 °F 24.8 °F 32.0 °F 89% 30.15 in - NW 17.3 mph 26.5 mph N/A   Unknown
9:56 AM 37.0 °F 26.2 °F 30.9 °F 79% 30.16 in - NNW 21.9 mph 28.8 mph N/A   Unknown
10:56 AM 39.0 °F 29.9 °F 28.9 °F 67% 30.17 in - NNW 17.3 mph - N/A   Unknown
11:56 AM 39.0 °F 29.0 °F 28.0 °F 65% 30.17 in - NW 20.7 mph 24.2 mph N/A   Unknown
12:56 PM 39.0 °F 30.3 °F 25.0 °F 57% 30.16 in - NNW 16.1 mph - N/A   Unknown
1:56 PM 39.0 °F 30.6 °F 26.1 °F 60% 30.14 in - NW 15.0 mph - N/A   Unknown
2:56 PM 39.9 °F 31.4 °F 25.0 °F 55% 30.14 in - NW 16.1 mph - N/A   Unknown
3:56 PM 41.0 °F 33.1 °F 26.1 °F 55% 30.13 in - NW 15.0 mph - N/A   Unknown
4:56 PM 41.0 °F 35.2 °F 25.0 °F 53% 30.13 in - NW 9.2 mph - N/A   Unknown
5:56 PM 36.0 °F 32.1 °F 27.0 °F 70% 30.14 in - West 4.6 mph - N/A   Unknown
6:56 PM 35.1 °F 31.0 °F 26.1 °F 70% 30.15 in - West 4.6 mph - N/A   Unknown
7:56 PM 35.1 °F 29.3 °F 27.0 °F 72% 30.14 in - West 6.9 mph - N/A   Unknown
8:56 PM 34.0 °F 28.0 °F 27.0 °F 75% 30.15 in - West 6.9 mph - N/A   Unknown
9:56 PM 33.1 °F 26.9 °F 27.0 °F 78% 30.15 in - WNW 6.9 mph - N/A   Unknown
10:56 PM 34.0 °F 27.2 °F 27.0 °F 75% 30.13 in - West 8.1 mph - N/A   Unknown
11:56 PM 33.1 °F 26.1 °F 26.1 °F 75% 30.12 in - West 8.1 mph - N/A   Unknown